{"data":{"norad_id":62558,"intl_designator":"2025-006E","name":"STARLINK-11358 [DTC]","alt_names":[],"object_type":"PAYLOAD","status":"ACTIVE","operator":null,"country":"US","launch_date":"2025-01-10","launch_site_code":"AFETR","launch_vehicle":null,"mission":null,"orbit_class":"UNKNOWN","rcs_meters":null,"size_class":null,"mass_kg":null,"dimensions":null,"purposes":["comms"],"wikipedia_slug":null,"has_3d_model":false,"image_url":null,"decayed_at":null,"tle_current":{"epoch":"2026-09-21T15:45:22.533120Z","epoch_age_seconds":71439,"freshness":"FRESH","line1":"1 62558U 25006E   26264.65651080  .00156935  00000+0  12043-2 0  9990","line2":"2 62558  43.0001  38.6060 0001469 275.5951  84.4749 15.70826511 97427","mean_motion":15.70826511,"eccentricity":0.0001469,"inclination_deg":43.0001,"raan_deg":38.606,"arg_perigee_deg":275.5951,"mean_anomaly_deg":84.4749,"bstar":0.0012043,"rev_number":9742,"period_min":91.671485674334,"perigee_km":355.54429281749,"apogee_km":357.52293904445,"semimajor_km":6734.670615931,"source":"CELESTRAK","updated_at":"2026-09-22T09:00:49.626713Z"}}}